Flag for Canada Weather past 2 weeks in Conception Bay South, Newfoundland and Labrador, Canada

Now
57 °F

Broken clouds.


Feels Like: 53 °F
Forecast: 50 / 62 °F
Wind: 20 mph from South

Location: St. John's

Current Time: Jul 29, 2015 at 4:26:14 PM

Latest Report: Jul 29, 2015 at 3:30 PM


Visibility: 15 mi

Pressure: 30.12 "Hg

Humidity: 77%

Dew point: 50 °F

Location of Conception Bay SouthLocation

Historic Weather in Conception Bay South — Graph

°F

Conception Bay South temperature yesterday

Maximum temperature yesterday: 66 °F (at 1:30 PM)
Minimum temperature yesterday: 46 °F (at 5:30 AM)
Average temperature yesterday: 56 °F

Past Weeks' High & Low Weather Summary

 TemperatureHumidityPressure
High75 °F (Jul 16, 3:30 PM)100% (Jul 15, 6:30 AM)30.24 "Hg (Jul 15, 6:30 AM)
Low43 °F (Jul 25, 3:30 AM)55% (Jul 15, 2:30 AM)29.26 "Hg (Jul 23, 11:30 AM)
Average53 °F90%29.92 "Hg
* Reported Jul 14 2:30 PM — Jul 29 2:30 PM, Conception Bay South, Weather by CustomWeather, © 2015

Note: Actual official high and low records may vary slightly from our data, if they occured in-between our weather recording intervals... More about our weather records

Advertising

Conception Bay South weather history for previous 24 hours

 ConditionsComfort  
Time TempWeatherWind HumidityBarometerVisibility
2:30 PM
Wed, Jul 29
61 °FBroken clouds.13 mph68%30.13 "Hg15 mi
1:30 PM59 °FPartly sunny.15 mph77%30.14 "Hg15 mi
12:30 PM59 °FPartly sunny.13 mph77%30.15 "Hg15 mi
11:30 AM59 °FBroken clouds.14 mph77%30.16 "Hg15 mi
10:30 AM61 °FBroken clouds.8 mph72%30.16 "Hg15 mi
9:30 AM57 °FPartly sunny.9 mph77%30.17 "Hg15 mi
8:30 AM52 °FLow clouds.13 mph94%30.18 "Hg8 mi
7:30 AM50 °FFog.13 mph94%30.18 "Hg3 mi
6:30 AM50 °FLow clouds.8 mph94%30.17 "Hg8 mi
5:30 AM50 °FFog.8 mph94%30.16 "Hg6 mi
4:30 AM50 °FLow clouds.9 mph100%30.17 "Hg15 mi
3:30 AM50 °FLow clouds.8 mph100%30.18 "Hg15 mi
2:30 AM50 °FPassing clouds.8 mph94%30.19 "Hg15 mi
1:30 AM52 °FOvercast.7 mph94%30.20 "Hg15 mi
12:30 AM52 °FOvercast.10 mph94%30.21 "Hg15 mi
11:30 PM
Tue, Jul 28
54 °FOvercast.8 mph88%30.22 "Hg15 mi
10:30 PM54 °FOvercast.10 mph88%30.22 "Hg15 mi
9:30 PM57 °FOvercast.10 mph82%30.21 "Hg15 mi
8:30 PM57 °FOvercast.7 mph88%30.20 "Hg15 mi
6:30 PM61 °FBroken clouds.9 mph77%30.20 "Hg15 mi
5:30 PM64 °FPartly sunny.10 mph73%30.19 "Hg15 mi
4:30 PM63 °FPartly sunny.13 mph73%30.19 "Hg15 mi
Weather by CustomWeather, © 2015

See weather overviewHow to use our weather pages